AirNav   Phillips 66 Aviation Fuel
 
 1184 users online  

80VA Holly Springs Airport
Richmond, Virginia, USA

GOING TO RICHMOND?


FAA INFORMATION EFFECTIVE 26 APRIL 2018

Location

FAA Identifier: 80VA
Lat/Long: 37-47-28.5180N / 077-49-28.9780W
37-47.475300N / 077-49.482967W
37.7912550 / -77.8247161
(estimated)
Elevation: 250 ft. / 76 m (estimated)
Variation: 09W (1990)
From city: 17 miles N of RICHMOND, VA
Time zone: UTC -4 (UTC -5 during Standard Time)
Zip code: 23024

Airport Operations

Airport use: Private use. Permission required prior to landing
Activation date: 02/1994
Control tower: no
ARTCC: WASHINGTON CENTER
FSS: LEESBURG FLIGHT SERVICE STATION
Attendance: SAT-SUN DAWN-DUSK
Wind indicator: yes
Segmented circle: no
Lights: FOR STROBE LIGHT & LIRL RY 06/24 CALL (804) 883-5314.
Beacon: FLASHING STROBE LIGHT.

Airport Communications

WX AWOS-3 at 7W4 (11 nm N): 120.775 (540-872-0303)
WX AWOS-3 at LKU (15 nm NW): 119.475 (540-967-1983)
WX ASOS at OFP (19 nm E): 119.025 (804-752-2902)

Nearby radio navigation aids

VOR radial/distance  VOR name  Freq  Var
FAKr007/15.8FLAT ROCK VORTAC113.3006W
GVEr137/20.5GORDONSVILLE VORTAC115.6006W
RICr315/29.6RICHMOND VORTAC114.1009W
BRVr223/39.6BROOKE VORTAC114.5009W

 
NDB name  Hdg/Dist  Freq  Var  ID
SHANNON222/33.523710WEZF . --.. ..-.
FARMVILLE057/39.336709WFVX ..-. ...- -..-
NAILR185/40.035110WMSQ -- ... --.-

Airport Services

Fuel available: MOGAS

Runway Information

Runway 6/24

Dimensions: 2000 x 90 ft. / 610 x 27 m
Surface: turf
Runway edge lights: low intensity
RUNWAY 6  RUNWAY 24
Traffic pattern: leftleft

Airport Ownership and Management from official FAA records

Ownership: Privately-owned
Owner: JAMES DUNN SR
RT 1 BOX 2270
MONTPELIER, VA 23192
Phone 804-883-5314
Manager: JAMES DUNN SR
RT 1 BOX 2270
MONTPELIER, VA 23193
Phone 804-883-5314

Airport Operational Statistics

Aircraft based on the field: 7
Single engine airplanes: 7
    

Instrument Procedures

There are no published instrument procedures at 80VA.

Some nearby airports with instrument procedures:

7W4 - Lake Anna Airport (11 nm N)
KLKU - Louisa County Airport/Freeman Field (15 nm NW)
KOFP - Hanover County Municipal Airport (19 nm E)
KFCI - Richmond Executive Airport-Chesterfield County (27 nm SE)
KGVE - Gordonsville Municipal Airport (27 nm NW)
 
Loc | Ops | Rwys | IFR | FBO | Links
Com | Nav | Svcs | Stats | Notes

AirNav Hotels Sweepstakes
 
Area around 80VA (Holly Springs Airport)
 
Road maps at: MapQuest Bing Google
 
Aerial photo
No photo
 
Sectional chart

 
Airport distance calculator
Flying to Holly Springs Airport? Find the distance to fly.

From to 80VA

Sunrise and sunset
Times for 21-May-2018
 Local
(UTC-4)
 Zulu
(UTC)
Morning civil twilight05:2809:28
Sunrise05:5809:58
Sunset20:1800:18
Evening civil twilight20:4800:48

Current date and time
Zulu (UTC)  21-May-2018 23:33:49
Local (UTC-4)  21-May-2018 19:33:49
 
METAR
K7W4 
11nm N 
212315Z AUTO 13004KT 10SM CLR 25/19 A3013 RMK AO1 T02470192
KLKU 
15nm NW 
212315Z AUTO 12006KT 10SM CLR 25/19 A3017 RMK AO2 T02460194
KOFP 
19nm E 
212254Z AUTO 11005KT 10SM CLR 24/18 A3014 RMK AO2 SLP205 T02440183
TAF
KRIC 
29nm SE 
211729Z 2118/2218 09008KT P6SM SCT025 OVC040 FM220600 VRB04KT 5SM BR BKN028 FM221100 VRB03KT 3SM BR OVC008 FM221400 20005KT P6SM BKN035
KCHO 
36nm NW 
211722Z 2118/2218 08005KT P6SM SCT060 SCT200 FM220000 VRB03KT P6SM VCSH BKN060 FM220500 VRB03KT P6SM VCSH OVC020 FM220800 VRB03KT 5SM BR VCSH OVC015 FM221100 VRB03KT 4SM BR OVC008 FM221400 17004KT P6SM OVC035
NOTAMs
Click for the latest NOTAMs
NOTAMs are issued by the DoD/FAA and will open in a separate window not controlled by AirNav.

 

 
 

Would you like to see your business listed on this page?

 If your business provides an interesting product or service to pilots, flight crews, aircraft, or users of the Holly Springs Airport, you should consider listing it here.  To start the listing process, click on the button below
 
Add a business
 

Other Pages about Holly Springs Airport

www.erols.com/...
 
Update a link
 
Copyright © AirNav, LLC. All rights reserved. Privacy Policy  Contact